Lexington Weather

Lexington, Massachusetts, USA

68°F
9/23/2021 5:29am 
  • Lexington Conditions: Mostly cloudy
  • Temperature: 67.6°F / 19.8°CWarmer 0.7°F than last hour.
  • Dew Point: 66.4°FIncreased 0.7°Fsince last hour.
  • Relative Humidity: 96
  • Wind: Calm, 10-min avg: Calm, gust: 2 mph
  • Barometer: 30.03 in Steady
  • Visibility: 10 miles
  • Rain Today: 0.00 in
  •   

Regional Weather Roundup
for Boston / Norton, MA

        
000
ASUS41 KBOX 161204
RWRBOX

REGIONAL WEATHER ROUNDUP
NATIONAL WEATHER SERVICE BOSTON/NORTON MA
800 AM EDT THU SEP 16 2021

NOTE:  "FAIR" INDICATES FEW OR NO CLOUDS BELOW 12,000 FEET WITH NO 
SIGNIFICANT WEATHER AND/OR OBSTRUCTIONS TO VISIBILITY.

MAZALL-161300-
EASTERN MASSACHUSETTS
  
CITY           SKY/WX    TMP DP  RH WIND       PRES   REMARKS
BOSTON         CLOUDY    68  64  87 NW8       30.20R                  
6HR MIN TEMP:  68; 6HR MAX TEMP:  75; 6HR PCP:  0.30;                

BEVERLY        LGT RAIN  66  64  93 W6        30.19R                  
LAWRENCE       CLOUDY    66  65  96 NW5       30.21S                  
BEDFORD        CLOUDY    66  66 100 CALM      30.18R                  
BLUE HILL      NOT AVBL                                               
NORWOOD        CLOUDY    67  64  90 NW3       30.20R                  
MARSHFIELD     RAIN      64  63  94 CALM      30.17F                  
PLYMOUTH       LGT RAIN  66  64  93 E9        30.18F                  
TAUNTON        LGT RAIN  67  65  93 CALM      30.17F                  
NEW BEDFORD    RAIN      67  66  97 E6        30.18R FOG              
$$

MAZALL-161300-
CAPE COD AND THE ISLANDS
  
CITY           SKY/WX    TMP DP  RH WIND       PRES   REMARKS
FALMOUTH       TSTM      64  64 100 NE15      30.19R VSB 1            
HYANNIS        TSTM      66  66 100 N12       30.20R VSB 1            
CHATHAM        TSTM      69  66  90 NE9       30.18R FOG              
PROVINCETOWN   RAIN      66  64  93 N8        30.21R FOG              
NANTUCKET      CLOUDY    73  71  93 S10       30.17R                  
MARTHAS VNYRD  TSTM      67  66  97 N15G30    30.18R FOG              
$$
 
MAZALL-161300-
CENTRAL AND WESTERN MASSACHUSETTS
  
CITY           SKY/WX    TMP DP  RH WIND       PRES   REMARKS
WORCESTER      CLOUDY    64  61  90 CALM      30.21S                  
6HR MIN TEMP:  64; 6HR MAX TEMP:  67; 6HR PCP:  0.37;                

FITCHBURG      CLOUDY    65  64  97 N7        30.21R                  
ORANGE         CLOUDY    63  62  97 CALM      30.21R                  
SPRINGFIELD    PTSUNNY   64  64 100 N6        30.19S                  
WESTFIELD      CLOUDY    64  64 100 N6        30.19R                  
NORTH ADAMS    CLOUDY    62  60  93 SW3       30.22R                  
PITTSFIELD     CLOUDY    61  59  93 CALM      30.21R                  
$$
 
RIZALL-161300-
RHODE ISLAND
  
CITY           SKY/WX    TMP DP  RH WIND       PRES   REMARKS
PROVIDENCE     LGT RAIN  68  66  93 E3        30.17S                  
6HR MIN TEMP:  68; 6HR MAX TEMP:  73; 6HR PCP:  0.05;                

NEWPORT        LGT RAIN  67  67 100 NE5       30.19R FOG              
BLOCK ISLAND   LGT RAIN  67  65  93 N8G17     30.19R                  
SMITHFIELD     CLOUDY    65  64  97 NE7       30.20R                  
WESTERLY       LGT RAIN  65  65 100 N8        30.16S                  
$$
 
CTZALL-161300-
CONNECTICUT
  
CITY           SKY/WX    TMP DP  RH WIND       PRES   REMARKS
BRADLEY INTL   CLOUDY    64  63  96 N7        30.19R                  
6HR MIN TEMP:  64; 6HR MAX TEMP:  70; 6HR PCP:  0.03;                

HARTFORD       LGT RAIN  67  63  87 NE6       30.18R                  
BRIDGEPORT     TSTM      68  63  84 N10       30.18R                  
DANBURY        LGT RAIN  67  64  90 E6        30.17R                  
GROTON         CLOUDY    68  65  90 NE9       30.13F                  
NEW HAVEN      CLOUDY    71  66  84 N8        30.17R                  
CHESTER        FAIR      68  66  94 VRB6      30.17R                  
MERIDEN        LGT RAIN  67  63  87 CALM      30.20R                  
WILLIMANTIC    LGT RAIN  65  64  97 N7        30.18R                  
OXFORD         LGT RAIN  64  63  96 N8        30.20R                  
$$

MEZ002-015-021-024-NHZ003-005-008-011-012-014-VTZ005-008-161300-
NORTHERN NEW ENGLAND
  
CITY           SKY/WX    TMP DP  RH WIND       PRES   REMARKS
PORTLAND ME    CLOUDY    64  61  90 N6        30.22R                  
6HR MIN TEMP:  64; 6HR MAX TEMP:  67; 6HR PCP:  0.03;                

BANGOR ME      PTSUNNY   59  55  87 NW7       30.24R                  
CONCORD NH     NOT AVBL                                               
MANCHESTER NH  CLOUDY    67  62  84 N7        30.18R                  
NASHUA NH      CLOUDY    65  65 100 W5        30.21R                  
PORTSMOUTH NH  CLOUDY    66  64  95 N6        30.20F                  
JAFFREY NH     CLOUDY    64  63  96 CALM      30.22R                  
KEENE NH       CLOUDY    64  63  96 N6        30.21R                  
BURLINGTON VT  FOG       54  53  97 CALM      30.27R VSB 1/8          
MT. WASHINGTON PTSUNNY   45  30  57 NW10        N/A                   
$$

NYZ052-076-161300-
EASTERN NEW YORK
  
CITY           SKY/WX    TMP DP  RH WIND       PRES   REMARKS
ALBANY         CLOUDY    56  56 100 NW6       30.23R                  
6HR MIN TEMP:  56; 6HR MAX TEMP:  60; 6HR PCP:  0.02;                

NEW YORK CITY  CLOUDY    73  62  68 E10       30.13R                  
6HR MIN TEMP:  72; 6HR MAX TEMP:  75;                                

$$
 
ANZALL-161300-
MARINE OBSERVATIONS
  
STATION/POSITION TIME  TEMP    WIND        PRES    VSBY  WAVE
                       AIR SEA DIR/SP/G                  HT/PER
                 (UTC) (F)     (DEG/KT/KT) (MB)    (MI)  (FT/S)
BOSTON BUOY      1140      66   30/  6/  8 1021.8F
BUZZARDS BAY     1100          240/ 12/ 20 1021.7R
NANTUCKET SOUND  1140   73 72  210/  8/ 10 1020.8R
MASS BAY-STELLWA 1104   65     340/ 10/ 12 1021.9R  1 7/8  2/ 5
ISLE OF SHOALS   1100   66     270/ 11/ 12 1022.5R
S OF BLOCK IS    1126      69                N/A           4/ 6
$$

......................KEY.........................
  SKY/WX - SKY CONDITION/PRESENT WEATHER
  TMP    - TEMPERATURE IN FAHRENHEIT
  DWPT   - DEWPOINT IN FAHRENHEIT
  RH     - RELATIVE HUMIDITY IN PERCENT
  WIND   - DIRECTION AND SPEED IN MPH
  PRES   - MEAN SEA LEVEL PRESSURE IN INCHES OF HG
  WCI    - WIND CHILL INDEX
  VSB    - VISIBILITY IN MILES
  HX     - HEAT INDEX
  TC     - TEMPERATURE IN CELSIUS
  VRB    - VARIABLE WIND DIRECTION
  N/A    - NOT AVAILABLE
  
      

Other recent Regional Weather Roundups

Thu Sep 23, 5:04am

Thu Sep 23, 4:04am

Thu Sep 23, 3:04am

Thu Sep 23, 2:04am

Thu Sep 23, 1:04am

Thu Sep 23, 12:04am

Wed Sep 22, 11:04pm

Wed Sep 22, 10:04pm

Wed Sep 22, 9:04pm

Wed Sep 22, 8:04pm

Wed Sep 22, 7:04pm

Wed Sep 22, 6:04pm

Wed Sep 22, 5:04pm

Wed Sep 22, 4:04pm

Wed Sep 22, 3:04pm

Wed Sep 22, 2:04pm

Wed Sep 22, 1:04pm

Wed Sep 22, 12:05pm

Wed Sep 22, 11:04am

Wed Sep 22, 10:04am

Wed Sep 22, 9:04am

Wed Sep 22, 8:04am

Wed Sep 22, 7:04am

Wed Sep 22, 6:04am

Wed Sep 22, 5:04am

Wed Sep 22, 4:04am

Wed Sep 22, 3:04am

Wed Sep 22, 2:04am

Wed Sep 22, 1:04am

Wed Sep 22, 12:04am

Tue Sep 21, 11:04pm

Tue Sep 21, 10:04pm

Tue Sep 21, 9:04pm

Tue Sep 21, 8:04pm

Tue Sep 21, 7:04pm

Tue Sep 21, 6:04pm

Tue Sep 21, 5:04pm

Tue Sep 21, 4:04pm

Tue Sep 21, 3:04pm

Tue Sep 21, 2:04pm

Tue Sep 21, 1:04pm

Tue Sep 21, 12:04pm

Tue Sep 21, 11:04am

Tue Sep 21, 10:04am

Tue Sep 21, 9:04am

Tue Sep 21, 8:04am

Tue Sep 21, 7:04am

Tue Sep 21, 6:04am

Tue Sep 21, 5:04am

Tue Sep 21, 4:04am

Tue Sep 21, 3:04am

Tue Sep 21, 2:04am

Tue Sep 21, 1:04am

Tue Sep 21, 12:04am

Mon Sep 20, 11:04pm

Mon Sep 20, 10:04pm

Mon Sep 20, 9:04pm

Mon Sep 20, 8:04pm

Mon Sep 20, 7:04pm

Mon Sep 20, 6:04pm

Mon Sep 20, 5:04pm

Mon Sep 20, 4:04pm

Mon Sep 20, 3:04pm

Mon Sep 20, 2:04pm

Mon Sep 20, 1:04pm

Mon Sep 20, 12:04pm

Mon Sep 20, 11:04am

Mon Sep 20, 10:04am

Mon Sep 20, 9:04am

Mon Sep 20, 7:04am

Mon Sep 20, 6:04am

Mon Sep 20, 5:04am

Mon Sep 20, 4:04am

Mon Sep 20, 3:04am

Mon Sep 20, 2:04am

Mon Sep 20, 1:04am

Mon Sep 20, 12:04am

Sun Sep 19, 11:04pm

Sun Sep 19, 10:04pm

Sun Sep 19, 9:04pm

Sun Sep 19, 8:04pm

Sun Sep 19, 7:04pm

Sun Sep 19, 6:04pm

Sun Sep 19, 5:04pm

Sun Sep 19, 4:04pm

Sun Sep 19, 3:04pm

Sun Sep 19, 2:05pm

Sun Sep 19, 1:04pm

Sun Sep 19, 12:04pm

Sun Sep 19, 11:04am

Sun Sep 19, 10:05am

Sun Sep 19, 9:04am

Sun Sep 19, 8:04am

Sun Sep 19, 7:04am

Sun Sep 19, 6:04am

Sun Sep 19, 5:04am

Sun Sep 19, 4:04am

Sun Sep 19, 3:04am

Sun Sep 19, 2:04am

Sun Sep 19, 1:04am

Sun Sep 19, 12:04am

Sat Sep 18, 11:05pm

Sat Sep 18, 10:04pm

Sat Sep 18, 9:04pm

Sat Sep 18, 8:04pm

Sat Sep 18, 7:04pm

Sat Sep 18, 6:04pm

Sat Sep 18, 5:04pm

Sat Sep 18, 4:04pm

Sat Sep 18, 3:04pm

Sat Sep 18, 2:04pm

Sat Sep 18, 1:04pm

Sat Sep 18, 12:04pm

Sat Sep 18, 11:04am

Sat Sep 18, 10:04am

Sat Sep 18, 9:04am

Sat Sep 18, 8:04am

Sat Sep 18, 7:04am

Sat Sep 18, 6:04am

Sat Sep 18, 5:04am

Sat Sep 18, 4:04am

Sat Sep 18, 3:04am

Sat Sep 18, 2:04am

Sat Sep 18, 1:04am

Sat Sep 18, 12:04am

Fri Sep 17, 11:04pm

Fri Sep 17, 10:04pm

Fri Sep 17, 9:04pm

Fri Sep 17, 8:04pm

Fri Sep 17, 7:04pm

Fri Sep 17, 6:04pm

Fri Sep 17, 5:04pm

Fri Sep 17, 4:04pm

Fri Sep 17, 3:04pm

Fri Sep 17, 2:04pm

Fri Sep 17, 1:04pm

Fri Sep 17, 12:05pm

Fri Sep 17, 11:04am

Fri Sep 17, 10:04am

Fri Sep 17, 9:04am

Fri Sep 17, 8:04am

Fri Sep 17, 7:04am

Fri Sep 17, 6:04am

Fri Sep 17, 5:04am

Fri Sep 17, 4:04am

Fri Sep 17, 3:04am

Fri Sep 17, 2:04am

Fri Sep 17, 1:04am

Fri Sep 17, 12:04am

Thu Sep 16, 11:04pm

Thu Sep 16, 10:04pm

Thu Sep 16, 9:04pm

Thu Sep 16, 8:04pm

Thu Sep 16, 7:04pm

Thu Sep 16, 6:04pm

Thu Sep 16, 5:04pm

Thu Sep 16, 4:04pm

Thu Sep 16, 3:04pm

Thu Sep 16, 2:04pm

Thu Sep 16, 1:05pm

Thu Sep 16, 12:04pm

Thu Sep 16, 11:05am

Thu Sep 16, 10:05am

Thu Sep 16, 9:04am

Thu Sep 16, 7:04am

Thu Sep 16, 6:04am

Meta data:

ID: b846f243-9c38-490a-ac5d-58729df2eac9
Link: https://api.weather.gov/products/b846f243-9c38-490a-ac5d-58729df2eac9